Location: Bosdarros
(43.2167°N, 0.3667°W)
Time: 03:46:09
(UTC+00:00)

Cosmos 1076 Rocket - Pass Details

Date: 22 April 2021
Orbit: 589 x 613 km, 82.5° (Epoch: 15 May)

Event Time Altitude Azimuth Distance (km) Brightness Sun altitude
Rises 19:51:28 0° 356° (N) 2,875 7.5 -10.7°
Reaches altitude 10° 19:53:44 10° 1° (N) 1,963 6.5 -11.0°
Maximum altitude 19:58:00 54° 79° (E) 735 3.7 -11.7°
Enters shadow 20:01:45 13° 156° (SSE) 1,765 5.4 -12.3°
